THY5Y VRMM-LTBS

Flight info

Callsign THY5Y
Flight time 7h 17m
Altitude 32000
Route LELEM2B LELEM L894 KITAL P570 EMURU/N0468F340 N563 ALPOB L768 OBMON/N0468F320 L934 DAVUS/N0466F340 L602 RALKA G795 TASMI UL602 DELMI G202 MODIK/N0461F360 G202 TAN R655 KTN R785 NIKAS L619 VESAR UN135 AYT UW79 ALTIN
Aircraft B39M/M-SDE1FGHILORVWXY/HB1

Departure

Time 2026-04-25 23:24
Airport Velana International Airport (VRMM)

Arrival

Time 2026-04-26 06:42
Airport Dalaman International Airport (LTBS)
Time Latitude Longitude Altitude Speed Heading
2026-04-25 22:52 4.18307 73.52782 12 ft 0 kts 269°
2026-04-25 23:15 4.18307 73.52790 12 ft 2 kts 269°
2026-04-25 23:15 4.18307 73.52806 12 ft 2 kts 269°
2026-04-25 23:15 4.18308 73.52822 12 ft 2 kts 257°
2026-04-25 23:16 4.18314 73.52837 12 ft 2 kts 237°
2026-04-25 23:16 4.18324 73.52849 12 ft 2 kts 218°
2026-04-25 23:16 4.18339 73.52857 12 ft 2 kts 199°
2026-04-25 23:16 4.18354 73.52860 12 ft 2 kts 180°
2026-04-25 23:17 4.18369 73.52859 12 ft 0 kts 179°
2026-04-25 23:17 4.18371 73.52859 12 ft 0 kts 180°
2026-04-25 23:19 4.18355 73.52859 12 ft 3 kts 180°
2026-04-25 23:19 4.18331 73.52859 12 ft 3 kts 180°
2026-04-25 23:20 4.18304 73.52859 12 ft 3 kts 179°
2026-04-25 23:20 4.18276 73.52860 12 ft 3 kts 178°
2026-04-25 23:20 4.18246 73.52861 12 ft 4 kts 178°
2026-04-25 23:20 4.18205 73.52863 12 ft 6 kts 178°
2026-04-25 23:21 4.18147 73.52864 12 ft 9 kts 172°
2026-04-25 23:21 4.18122 73.52914 12 ft 8 kts 57°
2026-04-25 23:21 4.18173 73.52943 12 ft 7 kts 43°
2026-04-25 23:21 4.18189 73.52991 12 ft 6 kts 89°
2026-04-25 23:22 4.18190 73.53037 12 ft 6 kts 89°
2026-04-25 23:22 4.18200 73.53094 11 ft 11 kts 52°
2026-04-25 23:22 4.18290 73.53102 11 ft 0 kts
2026-04-25 23:24 4.18499 73.53103 11 ft 66 kts 360°
2026-04-25 23:24 4.19233 73.53102 12 ft 133 kts
2026-04-25 23:24 4.20408 73.53103 31 ft 185 kts 360°
2026-04-25 23:24 4.21802 73.53097 700 ft 190 kts 359°
2026-04-25 23:25 4.23123 73.53045 1639 ft 180 kts 349°
2026-04-25 23:25 4.24358 73.52469 1992 ft 197 kts 321°
2026-04-25 23:25 4.25300 73.51433 2675 ft 194 kts 306°
2026-04-25 23:25 4.26100 73.50228 3065 ft 210 kts 302°
2026-04-25 23:26 4.26837 73.48985 3631 ft 213 kts 300°
2026-04-25 23:26 4.27702 73.47727 4261 ft 214 kts 314°
2026-04-25 23:26 4.28871 73.46687 4847 ft 217 kts 323°
2026-04-25 23:26 4.30082 73.45692 5535 ft 215 kts 321°
2026-04-25 23:27 4.31294 73.44660 6046 ft 224 kts 321°
2026-04-25 23:27 4.32522 73.43613 6548 ft 233 kts 321°
2026-04-25 23:27 4.33771 73.42551 7033 ft 239 kts 321°
2026-04-25 23:27 4.35035 73.41473 7507 ft 242 kts 321°
2026-04-25 23:28 4.36371 73.40379 7990 ft 245 kts 324°
2026-04-25 23:28 4.37786 73.39290 8491 ft 248 kts 324°
2026-04-25 23:28 4.39230 73.38178 8863 ft 257 kts 324°
2026-04-25 23:28 4.40744 73.36996 9119 ft 272 kts 324°
2026-04-25 23:29 4.42266 73.35798 9359 ft 285 kts 323°
2026-04-25 23:29 4.43945 73.34466 9610 ft 300 kts 323°
2026-04-25 23:29 4.45661 73.33103 9856 ft 313 kts 323°
2026-04-25 23:29 4.47440 73.31693 10100 ft 325 kts 323°
2026-04-25 23:30 4.49235 73.30272 10336 ft 336 kts 323°
2026-04-25 23:30 4.51082 73.28809 10569 ft 346 kts 323°
2026-04-25 23:30 4.53013 73.27280 10822 ft 356 kts 323°
2026-04-25 23:30 4.54984 73.25719 11176 ft 361 kts 323°
2026-04-25 23:31 4.57047 73.24087 11544 ft 366 kts 323°
2026-04-25 23:31 4.59157 73.22416 11931 ft 370 kts 323°
2026-04-25 23:31 4.61232 73.20772 12342 ft 372 kts 323°
2026-04-25 23:31 4.63351 73.19093 12759 ft 374 kts 323°
2026-04-25 23:32 4.65392 73.17476 13157 ft 376 kts 323°
2026-04-25 23:32 4.67387 73.15895 13542 ft 378 kts 323°
2026-04-25 23:32 4.69385 73.14313 13925 ft 380 kts 323°
2026-04-25 23:32 4.71394 73.12721 14309 ft 381 kts 323°
2026-04-25 23:33 4.73413 73.11122 14692 ft 382 kts 323°
2026-04-25 23:33 4.75550 73.09431 15097 ft 383 kts 323°
2026-04-25 23:33 4.77754 73.07685 15511 ft 384 kts 323°
2026-04-25 23:33 4.79946 73.05948 15923 ft 385 kts 323°
2026-04-25 23:34 4.82166 73.04188 16337 ft 385 kts 323°
2026-04-25 23:34 4.84381 73.02429 16751 ft 385 kts 322°
2026-04-25 23:34 4.86581 73.00686 17141 ft 386 kts 322°
2026-04-25 23:34 4.88746 72.98981 17501 ft 387 kts 323°
2026-04-25 23:35 4.90938 72.97260 17870 ft 388 kts 323°
2026-04-25 23:35 4.93160 72.95519 18242 ft 390 kts 323°
2026-04-25 23:35 4.95396 72.93764 18614 ft 391 kts 323°
2026-04-25 23:35 4.97645 72.91997 18990 ft 392 kts 323°
2026-04-25 23:36 4.99881 72.90241 19366 ft 393 kts 323°
2026-04-25 23:36 5.02129 72.88476 19740 ft 394 kts 322°
2026-04-25 23:36 5.04349 72.86732 20111 ft 395 kts 322°
2026-04-25 23:36 5.06414 72.85109 20456 ft 396 kts 322°
2026-04-25 23:37 5.08659 72.83343 20832 ft 397 kts 322°
2026-04-25 23:37 5.10902 72.81579 21205 ft 398 kts 322°
2026-04-25 23:37 5.13071 72.79873 21571 ft 398 kts 322°
2026-04-25 23:37 5.15282 72.78133 21942 ft 399 kts 322°
2026-04-25 23:38 5.17509 72.76380 22319 ft 399 kts 322°
2026-04-25 23:38 5.19731 72.74631 22688 ft 399 kts 322°
2026-04-25 23:38 5.22037 72.72816 23002 ft 401 kts 322°
2026-04-25 23:38 5.24317 72.71021 23256 ft 405 kts 322°
2026-04-25 23:39 5.26661 72.69175 23509 ft 408 kts 322°
2026-04-25 23:39 5.29032 72.67308 23772 ft 411 kts 321°
2026-04-25 23:39 5.31398 72.65445 24028 ft 414 kts 321°
2026-04-25 23:39 5.33717 72.63618 24276 ft 417 kts 321°
2026-04-25 23:40 5.35980 72.61837 24519 ft 419 kts 321°
2026-04-25 23:40 5.38253 72.60046 24758 ft 422 kts 321°
2026-04-25 23:40 5.40567 72.58225 25000 ft 424 kts 321°
2026-04-25 23:40 5.42875 72.56405 25240 ft 426 kts 321°
2026-04-25 23:41 5.45196 72.54576 25483 ft 428 kts 321°
2026-04-25 23:41 5.47544 72.52727 25726 ft 430 kts 321°
2026-04-25 23:41 5.49877 72.50888 25968 ft 432 kts 321°
2026-04-25 23:41 5.52215 72.49045 26207 ft 433 kts 321°
2026-04-25 23:42 5.54556 72.47199 26447 ft 434 kts 321°
2026-04-25 23:42 5.56953 72.45309 26692 ft 436 kts 321°
2026-04-25 23:42 5.59322 72.43442 26934 ft 437 kts 321°
2026-04-25 23:42 5.61667 72.41592 27171 ft 438 kts 320°
2026-04-25 23:43 5.64041 72.39720 27411 ft 439 kts 320°
2026-04-25 23:43 5.66435 72.37832 27653 ft 440 kts 320°
2026-04-25 23:43 5.68853 72.35925 27895 ft 441 kts 320°
2026-04-25 23:43 5.71260 72.34027 28135 ft 441 kts 320°
2026-04-25 23:44 5.73632 72.32156 28375 ft 442 kts 320°
2026-04-25 23:44 5.76122 72.30191 28583 ft 443 kts 320°
2026-04-25 23:44 5.78652 72.28194 28737 ft 446 kts 320°
2026-04-25 23:44 5.81222 72.26165 28883 ft 449 kts 320°
2026-04-25 23:45 5.83752 72.24168 29015 ft 453 kts 320°
2026-04-25 23:45 5.86315 72.22144 29143 ft 456 kts 320°
2026-04-25 23:45 5.88868 72.20128 29271 ft 459 kts 320°
2026-04-25 23:45 5.91491 72.18057 29399 ft 462 kts 320°
2026-04-25 23:46 5.94114 72.15985 29528 ft 465 kts 320°
2026-04-25 23:46 5.96753 72.13899 29656 ft 468 kts 319°
2026-04-25 23:46 5.99411 72.11799 29787 ft 471 kts 319°
2026-04-25 23:46 6.02092 72.09682 29917 ft 474 kts 319°
2026-04-25 23:47 6.04775 72.07562 30044 ft 476 kts 319°
2026-04-25 23:47 6.07491 72.05415 30175 ft 479 kts 319°
2026-04-25 23:47 6.10229 72.03252 30306 ft 482 kts 319°
2026-04-25 23:47 6.12983 72.01075 30435 ft 484 kts 319°
2026-04-25 23:48 6.15745 71.98891 30565 ft 486 kts 319°
2026-04-25 23:48 6.18520 71.96698 30693 ft 488 kts 319°
2026-04-25 23:48 6.21273 71.94521 30821 ft 490 kts 319°
2026-04-25 23:48 6.24108 71.92279 30953 ft 492 kts 319°
2026-04-25 23:49 6.26908 71.90064 31083 ft 493 kts 319°
2026-04-25 23:49 6.29733 71.87830 31211 ft 493 kts 318°
2026-04-25 23:49 6.32532 71.85616 31340 ft 492 kts 318°
2026-04-25 23:49 6.35393 71.83353 31473 ft 492 kts 318°
2026-04-25 23:50 6.38216 71.81119 31601 ft 492 kts 318°
2026-04-25 23:50 6.41036 71.78887 31732 ft 492 kts 318°
2026-04-25 23:50 6.43876 71.76640 31862 ft 491 kts 318°
2026-04-25 23:50 6.46659 71.74435 31990 ft 491 kts 317°
2026-04-25 23:51 6.49475 71.72205 32119 ft 490 kts 317°
2026-04-25 23:51 6.52285 71.69979 32248 ft 490 kts 318°
2026-04-25 23:51 6.55093 71.67754 32377 ft 490 kts 317°
2026-04-25 23:51 6.57886 71.65541 32505 ft 490 kts 317°
2026-04-25 23:52 6.60714 71.63302 32639 ft 489 kts 317°
2026-04-25 23:52 6.63512 71.61085 32788 ft 489 kts 317°
2026-04-25 23:52 6.66332 71.58849 32939 ft 489 kts 317°
2026-04-25 23:52 6.69116 71.56644 33088 ft 489 kts 317°
2026-04-25 23:53 6.71962 71.54388 33240 ft 488 kts 317°
2026-04-25 23:53 6.74756 71.52173 33391 ft 488 kts 317°
2026-04-25 23:53 6.77532 71.49972 33540 ft 488 kts 317°
2026-04-25 23:53 6.80344 71.47741 33692 ft 488 kts 317°
2026-04-25 23:54 6.83119 71.45540 33813 ft 488 kts 317°
2026-04-25 23:54 6.88709 71.41102 33826 ft 487 kts 317°
2026-04-25 23:55 6.94296 71.36668 33823 ft 484 kts 317°
2026-04-25 23:55 6.99840 71.32265 33822 ft 485 kts 317°
2026-04-25 23:56 7.05404 71.27844 33822 ft 485 kts 317°
2026-04-25 23:56 7.10959 71.23430 33822 ft 485 kts 317°
2026-04-25 23:57 7.16509 71.19022 33822 ft 487 kts 317°
2026-04-25 23:57 7.22120 71.14562 33823 ft 488 kts 317°
2026-04-25 23:58 7.27740 71.10092 33821 ft 488 kts 317°
2026-04-25 23:58 7.33317 71.05653 33822 ft 488 kts 317°
2026-04-25 23:59 7.38971 71.01151 33822 ft 488 kts 317°
2026-04-25 23:59 7.44552 70.96710 33822 ft 486 kts 317°
2026-04-26 00:00 7.50138 70.92264 33830 ft 486 kts 317°
2026-04-26 00:00 7.55717 70.87815 33841 ft 486 kts 317°
2026-04-26 00:01 7.61295 70.83371 33843 ft 485 kts 317°
2026-04-26 00:01 7.66889 70.78913 33843 ft 486 kts 317°
2026-04-26 00:02 7.72499 70.74440 33839 ft 486 kts 317°
2026-04-26 00:02 7.78092 70.69976 33838 ft 487 kts 317°
2026-04-26 00:03 7.83662 70.65528 33837 ft 487 kts 317°
2026-04-26 00:03 7.89231 70.61084 33834 ft 487 kts 317°
2026-04-26 00:04 7.94761 70.56669 33839 ft 486 kts 317°
2026-04-26 00:04 8.00280 70.52262 33844 ft 487 kts 317°
2026-04-26 00:05 8.05826 70.47832 33842 ft 486 kts 317°
2026-04-26 00:05 8.11352 70.43414 33843 ft 485 kts 317°
2026-04-26 00:06 8.16890 70.38987 33844 ft 486 kts 317°
2026-04-26 00:06 8.22441 70.34547 33843 ft 486 kts 317°
2026-04-26 00:07 8.27980 70.30114 33844 ft 485 kts 317°
2026-04-26 00:07 8.33518 70.25683 33844 ft 485 kts 317°
2026-04-26 00:08 8.39063 70.21243 33844 ft 485 kts 317°
2026-04-26 00:08 8.44603 70.16801 33837 ft 485 kts 317°
2026-04-26 00:09 8.50111 70.12386 33827 ft 486 kts 317°
2026-04-26 00:09 8.55665 70.07934 33823 ft 485 kts 317°
2026-04-26 00:10 8.61195 70.03499 33823 ft 485 kts 317°
2026-04-26 00:10 8.66727 69.99062 33822 ft 483 kts 317°
2026-04-26 00:11 8.72189 69.94682 33822 ft 483 kts 317°
2026-04-26 00:11 8.77703 69.90254 33830 ft 482 kts 317°
2026-04-26 00:12 8.83171 69.85860 33836 ft 483 kts 317°
2026-04-26 00:12 8.88650 69.81456 33842 ft 482 kts 317°
2026-04-26 00:13 8.94130 69.77051 33842 ft 482 kts 317°
2026-04-26 00:13 8.99635 69.72623 33843 ft 484 kts 317°
2026-04-26 00:14 9.05110 69.68220 33843 ft 483 kts 317°
2026-04-26 00:14 9.10605 69.63799 33843 ft 482 kts 317°
2026-04-26 00:15 9.16071 69.59399 33843 ft 481 kts 317°
2026-04-26 00:15 9.21514 69.55011 33843 ft 482 kts 317°
2026-04-26 00:16 9.26975 69.50609 33844 ft 482 kts 317°
2026-04-26 00:16 9.32431 69.46213 33842 ft 482 kts 317°
2026-04-26 00:17 9.37896 69.41805 33843 ft 482 kts 317°
2026-04-26 00:17 9.43365 69.37394 33844 ft 483 kts 317°
2026-04-26 00:18 9.48856 69.32963 33844 ft 483 kts 317°
2026-04-26 00:18 9.54367 69.28513 33845 ft 482 kts 317°
2026-04-26 00:19 9.59828 69.24101 33846 ft 482 kts 317°
2026-04-26 00:19 9.65270 69.19703 33843 ft 481 kts 317°
2026-04-26 00:20 9.70767 69.15259 33844 ft 481 kts 317°
2026-04-26 00:20 9.76253 69.10822 33843 ft 482 kts 317°
2026-04-26 00:21 9.81731 69.06390 33844 ft 481 kts 317°
2026-04-26 00:21 9.87175 69.01985 33845 ft 480 kts 317°
2026-04-26 00:22 9.92621 68.97572 33843 ft 481 kts 317°
2026-04-26 00:22 9.98085 68.93143 33847 ft 480 kts 317°
2026-04-26 00:23 10.03536 68.88725 33842 ft 481 kts 317°
2026-04-26 00:23 10.08985 68.84306 33843 ft 483 kts 317°
2026-04-26 00:24 10.14427 68.79891 33843 ft 481 kts 316°
2026-04-26 00:24 10.19923 68.75431 33841 ft 481 kts 317°
2026-04-26 00:25 10.25367 68.71012 33842 ft 481 kts 316°
2026-04-26 00:25 10.30817 68.66586 33843 ft 481 kts 316°
2026-04-26 00:26 10.36267 68.62155 33845 ft 481 kts 316°
2026-04-26 00:26 10.41708 68.57729 33841 ft 480 kts 316°
2026-04-26 00:27 10.47179 68.53278 33853 ft 481 kts 316°
2026-04-26 00:27 10.52601 68.48865 33860 ft 481 kts 316°
2026-04-26 00:28 10.58060 68.44419 33864 ft 481 kts 316°
2026-04-26 00:28 10.63505 68.39984 33865 ft 481 kts 316°
2026-04-26 00:29 10.68971 68.35529 33863 ft 480 kts 316°
2026-04-26 00:29 10.74404 68.31100 33862 ft 480 kts 316°
2026-04-26 00:30 10.79862 68.26649 33852 ft 480 kts 316°
2026-04-26 00:30 10.85279 68.22231 33843 ft 480 kts 316°
2026-04-26 00:31 10.90737 68.17774 33844 ft 480 kts 316°
2026-04-26 00:31 10.96141 68.13357 33845 ft 480 kts 316°
2026-04-26 00:32 11.01581 68.08909 33841 ft 480 kts 316°
2026-04-26 00:32 11.09724 68.02248 33842 ft 481 kts 316°
2026-04-26 00:33 11.15173 67.97788 33841 ft 481 kts 316°
2026-04-26 00:33 11.20634 67.93316 33842 ft 481 kts 316°
2026-04-26 00:34 11.26081 67.88856 33843 ft 480 kts 316°
2026-04-26 00:34 11.31538 67.84384 33842 ft 480 kts 316°
2026-04-26 00:35 11.36953 67.79944 33845 ft 480 kts 316°
2026-04-26 00:35 11.42355 67.75510 33848 ft 480 kts 316°
2026-04-26 00:36 11.47804 67.71039 33852 ft 480 kts 316°
2026-04-26 00:36 11.53205 67.66605 33851 ft 480 kts 315°
2026-04-26 00:37 11.58599 67.62174 33853 ft 481 kts 315°
2026-04-26 00:37 11.64030 67.57709 33860 ft 480 kts 316°
2026-04-26 00:38 11.69433 67.53265 33863 ft 479 kts 315°
2026-04-26 00:38 11.74839 67.48814 33864 ft 480 kts 315°
2026-04-26 00:39 11.80239 67.44366 33863 ft 480 kts 316°
2026-04-26 00:39 11.85618 67.39934 33863 ft 479 kts 316°
2026-04-26 00:40 11.90977 67.35521 33855 ft 479 kts 316°
2026-04-26 00:40 11.96422 67.31033 33845 ft 479 kts 315°
2026-04-26 00:41 12.01795 67.26600 33842 ft 479 kts 315°
2026-04-26 00:41 12.07108 67.22214 33844 ft 480 kts 315°
2026-04-26 00:42 12.12540 67.17730 33842 ft 479 kts 315°
2026-04-26 00:42 12.17908 67.13293 33843 ft 479 kts 315°
2026-04-26 00:43 12.23317 67.08818 33843 ft 479 kts 315°
2026-04-26 00:43 12.28728 67.04346 33843 ft 480 kts 315°
2026-04-26 00:44 12.34112 66.99892 33843 ft 478 kts 315°
2026-04-26 00:44 12.39527 66.95406 33844 ft 480 kts 315°
2026-04-26 00:45 12.44933 66.90929 33850 ft 478 kts 315°
2026-04-26 00:45 12.50313 66.86465 33854 ft 478 kts 316°
2026-04-26 00:46 12.55703 66.81990 33860 ft 479 kts 316°
2026-04-26 00:46 12.61134 66.77480 33861 ft 479 kts 316°
2026-04-26 00:47 12.66515 66.73012 33863 ft 477 kts 316°
2026-04-26 00:47 12.71868 66.68566 33860 ft 478 kts 316°
2026-04-26 00:48 12.77257 66.64090 33859 ft 477 kts 316°
2026-04-26 00:48 12.82639 66.59617 33855 ft 476 kts 316°
2026-04-26 00:49 12.88022 66.55138 33868 ft 477 kts 315°
2026-04-26 00:49 12.93393 66.50659 33856 ft 476 kts 316°
2026-04-26 00:50 12.98750 66.46197 33850 ft 476 kts 316°
2026-04-26 00:50 13.04093 66.41745 33847 ft 475 kts 316°
2026-04-26 00:51 13.09443 66.37281 33845 ft 473 kts 316°
2026-04-26 00:51 13.14777 66.32825 33847 ft 472 kts 316°
2026-04-26 00:52 13.20133 66.28349 33838 ft 474 kts 316°
2026-04-26 00:52 13.25434 66.23920 33845 ft 471 kts 316°
2026-04-26 00:53 13.30758 66.19471 33849 ft 472 kts 316°
2026-04-26 00:53 13.36106 66.14998 33856 ft 472 kts 316°
2026-04-26 00:54 13.41410 66.10558 33858 ft 471 kts 316°
2026-04-26 00:54 13.46701 66.06126 33863 ft 471 kts 316°
2026-04-26 00:55 13.51957 66.01719 33861 ft 470 kts 316°
2026-04-26 00:55 13.57258 65.97273 33864 ft 470 kts 316°
2026-04-26 00:56 13.62535 65.92845 33864 ft 469 kts 316°
2026-04-26 00:56 13.67832 65.88399 33863 ft 471 kts 316°
2026-04-26 00:57 13.73098 65.83978 33863 ft 469 kts 316°
2026-04-26 00:57 13.78382 65.79536 33863 ft 470 kts 316°
2026-04-26 00:58 13.83665 65.75092 33863 ft 469 kts 316°
2026-04-26 00:58 13.88936 65.70654 33863 ft 467 kts 316°
2026-04-26 00:59 13.94184 65.66235 33863 ft 468 kts 317°
2026-04-26 00:59 13.99411 65.61831 33863 ft 468 kts 317°
2026-04-26 01:00 14.04684 65.57385 33863 ft 467 kts 317°
2026-04-26 01:00 14.09912 65.52973 33863 ft 467 kts 317°
2026-04-26 01:01 14.15139 65.48563 33858 ft 467 kts 317°
2026-04-26 01:01 14.20392 65.44128 33848 ft 467 kts 317°
2026-04-26 01:02 14.25616 65.39711 33851 ft 466 kts 317°
2026-04-26 01:02 14.30884 65.35257 33859 ft 466 kts 317°
2026-04-26 01:03 14.36098 65.30845 33861 ft 465 kts 317°
2026-04-26 01:03 14.41291 65.26447 33862 ft 465 kts 318°
2026-04-26 01:04 14.46522 65.22014 33862 ft 465 kts 318°
2026-04-26 01:04 14.51718 65.17611 33861 ft 465 kts 318°
2026-04-26 01:05 14.56914 65.13204 33861 ft 464 kts 318°
2026-04-26 01:05 14.62124 65.08781 33863 ft 463 kts 318°
2026-04-26 01:06 14.67284 65.04397 33865 ft 464 kts 319°
2026-04-26 01:06 14.72529 64.99940 33863 ft 464 kts 319°
2026-04-26 01:07 14.77709 64.95535 33866 ft 464 kts 319°
2026-04-26 01:07 14.82930 64.91092 33865 ft 463 kts 319°
2026-04-26 01:08 14.88074 64.86710 33868 ft 464 kts 319°
2026-04-26 01:08 14.93306 64.82252 33870 ft 463 kts 319°
2026-04-26 01:09 14.98493 64.77828 33879 ft 463 kts 319°
2026-04-26 01:09 15.03647 64.73431 33883 ft 463 kts 319°
2026-04-26 01:10 15.08867 64.68974 33887 ft 464 kts 319°
2026-04-26 01:10 15.14092 64.64510 33887 ft 465 kts 320°
2026-04-26 01:11 15.19365 64.60000 33882 ft 469 kts 320°
2026-04-26 01:11 15.24589 64.55531 33878 ft 467 kts 321°
2026-04-26 01:12 15.29828 64.51046 33874 ft 465 kts 321°
2026-04-26 01:12 15.34987 64.46628 33869 ft 462 kts 321°
2026-04-26 01:13 15.40175 64.42181 33871 ft 461 kts 321°
2026-04-26 01:13 15.45335 64.37756 33873 ft 462 kts 321°
2026-04-26 01:14 15.50494 64.33330 33865 ft 462 kts 321°
2026-04-26 01:14 15.55647 64.28907 33869 ft 462 kts 321°
2026-04-26 01:15 15.60829 64.24455 33879 ft 462 kts 321°
2026-04-26 01:15 15.65999 64.20009 33882 ft 461 kts 321°
2026-04-26 01:16 15.71168 64.15559 33884 ft 460 kts 321°
2026-04-26 01:16 15.76319 64.11122 33882 ft 461 kts 321°
2026-04-26 01:17 15.81437 64.06710 33887 ft 462 kts 321°
2026-04-26 01:17 15.86601 64.02256 33883 ft 461 kts 321°
2026-04-26 01:18 15.91746 63.97817 33888 ft 461 kts 321°
2026-04-26 01:18 15.96884 63.93380 33888 ft 459 kts 321°
2026-04-26 01:19 16.02028 63.88934 33884 ft 459 kts 322°
2026-04-26 01:19 16.07137 63.84516 33883 ft 460 kts 322°
2026-04-26 01:20 16.12291 63.80057 33885 ft 460 kts 322°
2026-04-26 01:20 16.17400 63.75633 33884 ft 459 kts 322°
2026-04-26 01:21 16.22535 63.71182 33886 ft 459 kts 322°
2026-04-26 01:21 16.27653 63.66745 33890 ft 458 kts 322°
2026-04-26 01:22 16.32801 63.62278 33894 ft 458 kts 322°
2026-04-26 01:22 16.37927 63.57826 33898 ft 458 kts 322°
2026-04-26 01:23 16.43040 63.53383 33902 ft 457 kts 322°
2026-04-26 01:23 16.48117 63.48965 33901 ft 457 kts 322°
2026-04-26 01:24 16.53210 63.44532 33903 ft 457 kts 322°
2026-04-26 01:24 16.58308 63.40094 33899 ft 457 kts 322°
2026-04-26 01:25 16.63395 63.35664 33899 ft 456 kts 322°
2026-04-26 01:25 16.68467 63.31244 33904 ft 455 kts 322°
2026-04-26 01:26 16.73523 63.26831 33899 ft 456 kts 322°
2026-04-26 01:26 16.78576 63.22419 33901 ft 455 kts 322°
2026-04-26 01:27 16.83609 63.18019 33893 ft 454 kts 322°
2026-04-26 01:27 16.88645 63.13615 33889 ft 454 kts 322°
2026-04-26 01:28 16.93705 63.09188 33890 ft 453 kts 322°
2026-04-26 01:28 16.98733 63.04784 33887 ft 451 kts 322°
2026-04-26 01:29 17.03789 63.00352 33886 ft 452 kts 322°
2026-04-26 01:29 17.08776 62.95979 33885 ft 453 kts 322°
2026-04-26 01:30 17.13811 62.91559 33895 ft 452 kts 322°
2026-04-26 01:30 17.18830 62.87152 33902 ft 452 kts 322°
2026-04-26 01:31 17.23886 62.82705 33902 ft 451 kts 322°
2026-04-26 01:31 17.28894 62.78296 33904 ft 451 kts 322°
2026-04-26 01:32 17.33918 62.73874 33905 ft 450 kts 322°
2026-04-26 01:32 17.38919 62.69470 33905 ft 451 kts 322°
2026-04-26 01:33 17.43921 62.65061 33906 ft 450 kts 322°
2026-04-26 01:33 17.48934 62.60639 33903 ft 450 kts 322°
2026-04-26 01:34 17.53931 62.56231 33905 ft 449 kts 322°
2026-04-26 01:34 17.58920 62.51823 33905 ft 449 kts 322°
2026-04-26 01:35 17.63899 62.47421 33905 ft 448 kts 322°
2026-04-26 01:35 17.68875 62.43017 33905 ft 447 kts 322°
2026-04-26 01:36 17.73861 62.38602 33905 ft 448 kts 322°
2026-04-26 01:37 17.81303 62.32005 33904 ft 448 kts 322°
2026-04-26 01:37 17.86285 62.27584 33903 ft 447 kts 322°
2026-04-26 01:38 17.91256 62.23171 33901 ft 447 kts 322°
2026-04-26 01:38 17.96243 62.18740 33902 ft 445 kts 322°
2026-04-26 01:39 18.01176 62.14354 33903 ft 446 kts 322°
2026-04-26 01:39 18.06083 62.09985 33902 ft 446 kts 322°
2026-04-26 01:40 18.11017 62.05587 33900 ft 444 kts 322°
2026-04-26 01:40 18.15905 62.01233 33905 ft 443 kts 322°
2026-04-26 01:41 18.20845 61.96829 33900 ft 444 kts 322°
2026-04-26 01:41 18.25768 61.92437 33902 ft 443 kts 322°
2026-04-26 01:42 18.30689 61.88043 33908 ft 443 kts 322°
2026-04-26 01:42 18.35615 61.83638 33907 ft 443 kts 322°
2026-04-26 01:43 18.40530 61.79240 33910 ft 441 kts 322°
2026-04-26 01:43 18.45394 61.74882 33908 ft 441 kts 322°
2026-04-26 01:44 18.50259 61.70522 33906 ft 441 kts 322°
2026-04-26 01:44 18.55196 61.66095 33908 ft 440 kts 322°
2026-04-26 01:45 18.60069 61.61723 33910 ft 439 kts 322°
2026-04-26 01:45 18.64906 61.57381 33907 ft 439 kts 322°
2026-04-26 01:46 18.69787 61.52996 33905 ft 438 kts 322°
2026-04-26 01:46 18.74645 61.48626 33905 ft 439 kts 322°
2026-04-26 01:47 18.79516 61.44236 33894 ft 438 kts 322°
2026-04-26 01:47 18.84368 61.39864 33893 ft 439 kts 322°
2026-04-26 01:48 18.89219 61.35492 33889 ft 438 kts 322°
2026-04-26 01:48 18.94088 61.31100 33890 ft 437 kts 322°
2026-04-26 01:49 18.98910 61.26745 33887 ft 437 kts 322°
2026-04-26 01:49 19.03705 61.22411 33886 ft 437 kts 322°
2026-04-26 01:50 19.08489 61.18084 33889 ft 437 kts 322°
2026-04-26 01:50 19.13345 61.13687 33898 ft 437 kts 322°
2026-04-26 01:51 19.18184 61.09304 33898 ft 436 kts 322°
2026-04-26 01:51 19.22991 61.04945 33901 ft 434 kts 322°
2026-04-26 01:52 19.27358 61.00981 33900 ft 434 kts 322°
2026-04-26 01:52 19.32161 60.96619 33899 ft 436 kts 322°
2026-04-26 01:53 19.36959 60.92260 33896 ft 435 kts 322°
2026-04-26 01:53 19.41773 60.87882 33893 ft 435 kts 322°
2026-04-26 01:54 19.46547 60.83539 33898 ft 434 kts 322°
2026-04-26 01:54 19.51314 60.79195 33902 ft 434 kts 322°
2026-04-26 01:55 19.56128 60.74806 33900 ft 434 kts 322°
2026-04-26 01:55 19.60906 60.70446 33894 ft 434 kts 322°
2026-04-26 01:56 19.65702 60.66066 33891 ft 434 kts 322°
2026-04-26 01:56 19.70474 60.61704 33888 ft 433 kts 322°
2026-04-26 01:57 19.75260 60.57326 33886 ft 433 kts 321°
2026-04-26 01:57 19.80012 60.52976 33885 ft 432 kts 321°
2026-04-26 01:58 19.84809 60.48580 33884 ft 433 kts 321°
2026-04-26 01:58 19.89560 60.44224 33884 ft 432 kts 321°
2026-04-26 01:59 19.94286 60.39888 33884 ft 432 kts 321°
2026-04-26 01:59 19.99043 60.35519 33885 ft 432 kts 321°
2026-04-26 02:00 20.03796 60.31186 33884 ft 432 kts 323°
2026-04-26 02:00 20.08942 60.27361 33884 ft 430 kts 329°
2026-04-26 02:01 20.14340 60.23947 33882 ft 431 kts 331°
2026-04-26 02:01 20.19756 60.20596 33880 ft 431 kts 331°
2026-04-26 02:02 20.25169 60.17212 33877 ft 430 kts 330°
2026-04-26 02:02 20.30574 60.13797 33878 ft 430 kts 330°
2026-04-26 02:03 20.35933 60.10395 33882 ft 429 kts 330°
2026-04-26 02:03 20.41299 60.06982 33887 ft 429 kts 330°
2026-04-26 02:04 20.46643 60.03578 33894 ft 430 kts 330°
2026-04-26 02:04 20.52024 60.00147 33895 ft 429 kts 330°
2026-04-26 02:05 20.57414 59.96705 33892 ft 430 kts 330°
2026-04-26 02:05 20.62756 59.93295 33891 ft 431 kts 330°
2026-04-26 02:06 20.68139 59.89854 33888 ft 430 kts 330°
2026-04-26 02:06 20.73514 59.86417 33887 ft 430 kts 329°
2026-04-26 02:07 20.78861 59.82992 33885 ft 431 kts 329°
2026-04-26 02:07 20.84220 59.79556 33883 ft 430 kts 330°
2026-04-26 02:08 20.89615 59.76097 33884 ft 430 kts 329°
2026-04-26 02:08 20.94952 59.72671 33883 ft 432 kts 329°
2026-04-26 02:09 21.00345 59.69207 33883 ft 430 kts 329°
2026-04-26 02:09 21.05689 59.65772 33883 ft 431 kts 329°
2026-04-26 02:10 21.11058 59.62318 33883 ft 432 kts 329°
2026-04-26 02:10 21.16414 59.58867 33882 ft 431 kts 329°
2026-04-26 02:11 21.21779 59.55407 33880 ft 433 kts 329°
2026-04-26 02:11 21.27133 59.51951 33878 ft 432 kts 329°
2026-04-26 02:12 21.32505 59.48483 33878 ft 432 kts 329°
2026-04-26 02:12 21.37837 59.45034 33877 ft 433 kts 329°
2026-04-26 02:13 21.43163 59.41589 33880 ft 433 kts 329°
2026-04-26 02:13 21.48503 59.38135 33886 ft 433 kts 329°
2026-04-26 02:14 21.53877 59.34654 33888 ft 433 kts 329°
2026-04-26 02:14 21.59172 59.31218 33893 ft 435 kts 329°
2026-04-26 02:15 21.64555 59.27725 33898 ft 434 kts 329°
2026-04-26 02:15 21.69915 59.24242 33903 ft 435 kts 329°
2026-04-26 02:16 21.75263 59.20766 33910 ft 435 kts 329°
2026-04-26 02:16 21.80629 59.17272 33915 ft 434 kts 329°
2026-04-26 02:17 21.85963 59.13799 33920 ft 435 kts 329°
2026-04-26 02:17 21.91354 59.10286 33929 ft 434 kts 328°
2026-04-26 02:18 21.96718 59.06787 33932 ft 436 kts 329°
2026-04-26 02:18 22.02159 59.03233 33931 ft 437 kts 329°
2026-04-26 02:19 22.07555 58.99705 33932 ft 437 kts 329°
2026-04-26 02:19 22.12896 58.96211 33933 ft 436 kts 328°
2026-04-26 02:20 22.18324 58.92654 33945 ft 436 kts 328°
2026-04-26 02:20 22.23353 58.88685 33933 ft 437 kts 315°
2026-04-26 02:21 22.27233 58.83405 33952 ft 436 kts 306°
2026-04-26 02:21 22.30740 58.77716 33967 ft 437 kts 304°
2026-04-26 02:22 22.34171 58.72072 33961 ft 436 kts 305°
2026-04-26 02:22 22.37643 58.66423 33970 ft 435 kts 305°
2026-04-26 02:23 22.41129 58.60799 33979 ft 435 kts 305°
2026-04-26 02:23 22.44597 58.55212 33981 ft 434 kts 305°
2026-04-26 02:24 22.48062 58.49633 33994 ft 434 kts 305°
2026-04-26 02:24 22.51533 58.44037 33994 ft 433 kts 305°
2026-04-26 02:25 22.54985 58.38470 34000 ft 434 kts 305°
2026-04-26 02:25 22.58457 58.32862 33997 ft 432 kts 305°
2026-04-26 02:26 22.61905 58.27287 34001 ft 433 kts 305°
2026-04-26 02:26 22.65369 58.21679 34005 ft 433 kts 305°
2026-04-26 02:27 22.68811 58.16099 34004 ft 432 kts 305°
2026-04-26 02:27 22.72263 58.10500 34015 ft 432 kts 305°
2026-04-26 02:28 22.75647 58.05004 34015 ft 431 kts 305°
2026-04-26 02:28 22.79067 57.99445 34021 ft 432 kts 304°
2026-04-26 02:29 22.82515 57.93831 34034 ft 431 kts 305°
2026-04-26 02:29 22.85938 57.88256 34053 ft 430 kts 305°
2026-04-26 02:30 22.89363 57.82670 34059 ft 431 kts 304°
2026-04-26 02:30 22.92766 57.77117 34077 ft 430 kts 304°
2026-04-26 02:31 22.96187 57.71526 34079 ft 430 kts 304°
2026-04-26 02:31 22.99589 57.65957 34090 ft 430 kts 304°
2026-04-26 02:32 23.03000 57.60375 34086 ft 430 kts 304°
2026-04-26 02:32 23.06387 57.54821 34094 ft 428 kts 304°
2026-04-26 02:33 23.09796 57.49223 34107 ft 429 kts 304°
2026-04-26 02:33 23.13191 57.43646 34150 ft 428 kts 304°
2026-04-26 02:34 23.16575 57.38079 34204 ft 426 kts 304°
2026-04-26 02:34 23.19944 57.32531 34265 ft 427 kts 304°
2026-04-26 02:35 23.23342 57.26936 34326 ft 426 kts 304°
2026-04-26 02:35 23.26654 57.21475 34338 ft 426 kts 304°
2026-04-26 02:36 23.30025 57.15911 34282 ft 424 kts 304°
2026-04-26 02:36 23.33359 57.10391 34215 ft 425 kts 303°
2026-04-26 02:37 23.36692 57.04873 34150 ft 424 kts 304°
2026-04-26 02:37 23.40045 56.99319 34108 ft 427 kts 303°
2026-04-26 02:38 23.43371 56.93799 34077 ft 425 kts 303°
2026-04-26 02:38 23.46733 56.88222 34062 ft 423 kts 304°
2026-04-26 02:39 23.50079 56.82665 34053 ft 423 kts 303°
2026-04-26 02:39 23.53411 56.77112 34034 ft 423 kts 303°
2026-04-26 02:40 23.56723 56.71581 34049 ft 424 kts 304°
2026-04-26 02:40 23.60087 56.65971 34041 ft 424 kts 303°
2026-04-26 02:41 23.63385 56.60468 34041 ft 421 kts 304°
2026-04-26 02:41 23.66676 56.54961 34050 ft 422 kts 304°
2026-04-26 02:42 23.70000 56.49401 34059 ft 422 kts 304°
2026-04-26 02:42 23.73277 56.43906 34044 ft 421 kts 304°
2026-04-26 02:43 23.78231 56.35595 34042 ft 420 kts 303°
2026-04-26 02:43 23.81495 56.30108 34035 ft 418 kts 303°
2026-04-26 02:44 23.84778 56.24590 34032 ft 418 kts 303°
2026-04-26 02:44 23.88057 56.19072 34034 ft 419 kts 303°
2026-04-26 02:45 23.91340 56.13537 34016 ft 418 kts 303°
2026-04-26 02:45 23.94615 56.08012 34016 ft 418 kts 303°
2026-04-26 02:46 23.97857 56.02531 34005 ft 416 kts 304°
2026-04-26 02:46 24.01110 55.97036 33989 ft 416 kts 303°
2026-04-26 02:47 24.04330 55.91581 33989 ft 417 kts 303°
2026-04-26 02:47 24.07570 55.86082 33980 ft 415 kts 303°
2026-04-26 02:48 24.10816 55.80575 33971 ft 414 kts 303°
2026-04-26 02:48 24.14043 55.75092 33960 ft 415 kts 303°
2026-04-26 02:49 24.17260 55.69622 33954 ft 415 kts 303°
2026-04-26 02:49 24.20477 55.64149 33950 ft 414 kts 303°
2026-04-26 02:50 24.23663 55.58721 33949 ft 413 kts 303°
2026-04-26 02:50 24.26871 55.53242 33943 ft 414 kts 303°
2026-04-26 02:51 24.30087 55.47747 33934 ft 412 kts 303°
2026-04-26 02:51 24.33276 55.42299 33933 ft 412 kts 303°
2026-04-26 02:52 24.36470 55.36828 33928 ft 411 kts 303°
2026-04-26 02:52 24.39666 55.31345 33922 ft 412 kts 302°
2026-04-26 02:53 24.42836 55.25908 33922 ft 411 kts 302°
2026-04-26 02:53 24.46026 55.20435 33925 ft 411 kts 302°
2026-04-26 02:54 24.49179 55.15015 33925 ft 409 kts 302°
2026-04-26 02:54 24.52299 55.09635 33925 ft 410 kts 302°
2026-04-26 02:55 24.55498 55.04115 33916 ft 408 kts 302°
2026-04-26 02:55 24.58658 54.98669 33909 ft 407 kts 302°
2026-04-26 02:56 24.61829 54.93201 33906 ft 407 kts 302°
2026-04-26 02:56 24.64975 54.87760 33900 ft 407 kts 302°
2026-04-26 02:57 24.68147 54.82258 33901 ft 407 kts 302°
2026-04-26 02:57 24.71330 54.76746 33900 ft 406 kts 302°
2026-04-26 02:58 24.74539 54.71182 33899 ft 407 kts 302°
2026-04-26 02:58 24.77718 54.65662 33897 ft 406 kts 302°
2026-04-26 02:59 24.80895 54.60133 33895 ft 405 kts 302°
2026-04-26 02:59 24.84068 54.54602 33896 ft 405 kts 302°
2026-04-26 03:00 24.87219 54.49107 33895 ft 404 kts 302°
2026-04-26 03:00 24.90356 54.43635 33896 ft 405 kts 302°
2026-04-26 03:01 24.93502 54.38139 33898 ft 404 kts 302°
2026-04-26 03:01 24.96646 54.32641 33895 ft 405 kts 301°
2026-04-26 03:02 24.99786 54.27145 33895 ft 405 kts 301°
2026-04-26 03:02 25.02927 54.21640 33887 ft 405 kts 301°
2026-04-26 03:03 25.06075 54.16111 33889 ft 405 kts 301°
2026-04-26 03:03 25.09193 54.10632 33898 ft 405 kts 301°
2026-04-26 03:04 25.12327 54.05118 33902 ft 405 kts 301°
2026-04-26 03:04 25.15452 53.99611 33902 ft 404 kts 301°
2026-04-26 03:05 25.18592 53.94068 33903 ft 404 kts 301°
2026-04-26 03:05 25.21722 53.88543 33903 ft 403 kts 301°
2026-04-26 03:06 25.24838 53.83033 33900 ft 403 kts 300°
2026-04-26 03:06 25.27946 53.77534 33904 ft 403 kts 301°
2026-04-26 03:07 25.31068 53.72000 33906 ft 402 kts 301°
2026-04-26 03:07 25.34180 53.66489 33906 ft 403 kts 300°
2026-04-26 03:08 25.37280 53.60988 33906 ft 401 kts 301°
2026-04-26 03:08 25.40380 53.55472 33903 ft 402 kts 300°
2026-04-26 03:09 25.43491 53.49923 33902 ft 402 kts 300°
2026-04-26 03:09 25.46565 53.44444 33905 ft 401 kts 301°
2026-04-26 03:10 25.49659 53.38932 33907 ft 402 kts 300°
2026-04-26 03:10 25.52734 53.33457 33907 ft 401 kts 300°
2026-04-26 03:11 25.55828 53.27925 33915 ft 400 kts 300°
2026-04-26 03:11 25.58891 53.22428 33916 ft 400 kts 300°
2026-04-26 03:12 25.61980 53.16892 33918 ft 400 kts 300°
2026-04-26 03:12 25.65043 53.11388 33919 ft 399 kts 300°
2026-04-26 03:13 25.68112 53.05875 33922 ft 398 kts 299°
2026-04-26 03:13 25.71125 53.00354 33919 ft 398 kts 297°
2026-04-26 03:14 25.73613 52.94555 33913 ft 397 kts 292°
2026-04-26 03:14 25.75924 52.88686 33912 ft 395 kts 292°
2026-04-26 03:15 25.78279 52.82829 33913 ft 396 kts 293°
2026-04-26 03:15 25.80674 52.76971 33917 ft 396 kts 294°
2026-04-26 03:16 25.83074 52.71133 33920 ft 395 kts 294°
2026-04-26 03:16 25.85463 52.65326 33915 ft 394 kts 293°
2026-04-26 03:17 25.87837 52.59533 33923 ft 395 kts 293°
2026-04-26 03:17 25.90221 52.53717 33919 ft 394 kts 293°
2026-04-26 03:18 25.92603 52.47906 33923 ft 394 kts 293°
2026-04-26 03:18 25.94956 52.42153 33924 ft 391 kts 293°
2026-04-26 03:19 25.97321 52.36354 33929 ft 392 kts 293°
2026-04-26 03:19 25.99671 52.30594 33928 ft 392 kts 292°
2026-04-26 03:20 26.02031 52.24795 33934 ft 391 kts 292°
2026-04-26 03:20 26.04370 52.19047 33939 ft 389 kts 292°
2026-04-26 03:21 26.06707 52.13298 33942 ft 389 kts 293°
2026-04-26 03:21 26.09045 52.07537 33942 ft 388 kts 292°
2026-04-26 03:22 26.11373 52.01788 33944 ft 388 kts 293°
2026-04-26 03:22 26.13693 51.96031 33948 ft 388 kts 292°
2026-04-26 03:23 26.16036 51.90226 33947 ft 389 kts 292°
2026-04-26 03:23 26.18356 51.84472 33949 ft 388 kts 292°
2026-04-26 03:24 26.20698 51.78660 33955 ft 388 kts 292°
2026-04-26 03:24 26.23019 51.72905 33961 ft 388 kts 292°
2026-04-26 03:25 26.25334 51.67144 33962 ft 388 kts 292°
2026-04-26 03:25 26.27657 51.61348 33962 ft 388 kts 292°
2026-04-26 03:26 26.29974 51.55556 33952 ft 387 kts 292°
2026-04-26 03:26 26.32267 51.49822 33942 ft 386 kts 292°
2026-04-26 03:27 26.34575 51.44049 33943 ft 388 kts 292°
2026-04-26 03:27 26.36872 51.38291 33943 ft 387 kts 292°
2026-04-26 03:28 26.39173 51.32516 33944 ft 388 kts 291°
2026-04-26 03:28 26.41465 51.26758 33949 ft 386 kts 291°
2026-04-26 03:29 26.43740 51.21021 33956 ft 387 kts 291°
2026-04-26 03:29 26.46037 51.15223 33963 ft 386 kts 291°
2026-04-26 03:30 26.48314 51.09477 33966 ft 386 kts 291°
2026-04-26 03:30 26.50594 51.03711 33965 ft 386 kts 291°
2026-04-26 03:31 26.52874 50.97933 33966 ft 386 kts 291°
2026-04-26 03:31 26.55150 50.92153 33965 ft 385 kts 291°
2026-04-26 03:32 26.57416 50.86396 33966 ft 385 kts 291°
2026-04-26 03:32 26.59681 50.80640 33968 ft 386 kts 291°
2026-04-26 03:33 26.61944 50.74886 33965 ft 385 kts 291°
2026-04-26 03:33 26.64471 50.69259 33961 ft 389 kts 302°
2026-04-26 03:34 26.68626 50.64768 33966 ft 400 kts 315°
2026-04-26 03:34 26.73273 50.60803 33962 ft 402 kts 316°
2026-04-26 03:35 26.77934 50.56815 33966 ft 403 kts 315°
2026-04-26 03:35 26.82599 50.52742 33956 ft 401 kts 315°
2026-04-26 03:36 26.87190 50.48689 33948 ft 401 kts 315°
2026-04-26 03:36 26.91805 50.44589 33946 ft 401 kts 314°
2026-04-26 03:37 26.96404 50.40497 33948 ft 402 kts 315°
2026-04-26 03:37 27.01013 50.36386 33945 ft 403 kts 314°
2026-04-26 03:38 27.05623 50.32261 33953 ft 402 kts 314°
2026-04-26 03:38 27.10216 50.28161 33949 ft 401 kts 314°
2026-04-26 03:39 27.14852 50.24008 33952 ft 404 kts 314°
2026-04-26 03:39 27.19451 50.19894 33948 ft 403 kts 314°
2026-04-26 03:40 27.24093 50.15734 33953 ft 404 kts 314°
2026-04-26 03:40 27.28715 50.11582 33961 ft 404 kts 314°
2026-04-26 03:41 27.33359 50.07407 33961 ft 404 kts 314°
2026-04-26 03:41 27.37966 50.03270 33959 ft 403 kts 314°
2026-04-26 03:42 27.42618 49.99083 33953 ft 404 kts 314°
2026-04-26 03:42 27.47234 49.94920 33953 ft 403 kts 314°
2026-04-26 03:43 27.51862 49.90744 33957 ft 404 kts 314°
2026-04-26 03:43 27.56518 49.86539 33957 ft 404 kts 314°
2026-04-26 03:44 27.61138 49.82358 33963 ft 405 kts 314°
2026-04-26 03:44 27.65808 49.78134 33965 ft 407 kts 314°
2026-04-26 03:45 27.70462 49.73917 33959 ft 404 kts 314°
2026-04-26 03:45 27.75061 49.69743 33958 ft 406 kts 314°
2026-04-26 03:46 27.79716 49.65511 33956 ft 405 kts 314°
2026-04-26 03:47 27.86669 49.59181 33951 ft 408 kts 314°
2026-04-26 03:47 27.91344 49.54923 33949 ft 408 kts 314°
2026-04-26 03:48 27.96009 49.50669 33941 ft 406 kts 314°
2026-04-26 03:48 28.00669 49.46423 33945 ft 407 kts 314°
2026-04-26 03:49 28.05321 49.42170 33952 ft 408 kts 314°
2026-04-26 03:49 28.09970 49.37910 33953 ft 409 kts 313°
2026-04-26 03:50 28.14650 49.33614 33946 ft 410 kts 314°
2026-04-26 03:50 28.19321 49.29337 33951 ft 409 kts 313°
2026-04-26 03:51 28.23948 49.25091 33951 ft 410 kts 313°
2026-04-26 03:51 28.28641 49.20770 33952 ft 410 kts 313°
2026-04-26 03:52 28.33325 49.16449 33961 ft 412 kts 313°
2026-04-26 03:52 28.38005 49.12138 33961 ft 414 kts 313°
2026-04-26 03:53 28.42891 49.07955 33964 ft 418 kts 317°
2026-04-26 03:53 28.48035 49.04091 33968 ft 417 kts 319°
2026-04-26 03:54 28.53180 49.00266 33966 ft 419 kts 318°
2026-04-26 03:54 28.58276 48.96419 33972 ft 418 kts 317°
2026-04-26 03:55 28.63390 48.92517 33966 ft 421 kts 318°
2026-04-26 03:55 28.68525 48.88589 33970 ft 419 kts 318°
2026-04-26 03:56 28.73606 48.84693 33970 ft 421 kts 318°
2026-04-26 03:56 28.78749 48.80756 33974 ft 421 kts 318°
2026-04-26 03:57 28.83898 48.76809 33970 ft 421 kts 317°
2026-04-26 03:57 28.89028 48.72863 33968 ft 422 kts 318°
2026-04-26 03:58 28.94153 48.68916 33972 ft 423 kts 318°
2026-04-26 03:58 28.99326 48.64931 33981 ft 423 kts 318°
2026-04-26 03:59 29.04427 48.60990 33975 ft 422 kts 318°
2026-04-26 03:59 29.09590 48.56995 33972 ft 426 kts 318°
2026-04-26 04:00 29.14728 48.53018 33968 ft 427 kts 318°
2026-04-26 04:00 29.19853 48.49053 33967 ft 425 kts 318°
2026-04-26 04:01 29.24999 48.45062 33965 ft 426 kts 317°
2026-04-26 04:01 29.30143 48.41061 33970 ft 425 kts 317°
2026-04-26 04:02 29.35280 48.37074 33968 ft 426 kts 317°
2026-04-26 04:02 29.40427 48.33066 33963 ft 427 kts 317°
2026-04-26 04:03 29.45566 48.29128 33965 ft 428 kts 320°
2026-04-26 04:03 29.50918 48.25553 33964 ft 431 kts 322°
2026-04-26 04:04 29.56374 48.22058 33968 ft 437 kts 322°
2026-04-26 04:04 29.61796 48.18556 33966 ft 437 kts 322°
2026-04-26 04:05 29.67269 48.14986 33967 ft 435 kts 322°
2026-04-26 04:05 29.72668 48.11446 33963 ft 433 kts 321°
2026-04-26 04:06 29.78141 48.07822 33968 ft 438 kts 322°
2026-04-26 04:06 29.83603 48.04208 33967 ft 435 kts 321°
2026-04-26 04:07 29.88983 48.00645 33968 ft 432 kts 321°
2026-04-26 04:07 29.94450 47.97013 33968 ft 437 kts 322°
2026-04-26 04:08 29.99878 47.93318 33963 ft 433 kts 318°
2026-04-26 04:08 30.04576 47.88779 33971 ft 419 kts 306°
2026-04-26 04:09 30.08517 47.83618 33976 ft 417 kts 303°
2026-04-26 04:09 30.12380 47.78332 33984 ft 413 kts 303°
2026-04-26 04:10 30.16229 47.73088 33991 ft 415 kts 303°
2026-04-26 04:10 30.20099 47.67841 33986 ft 415 kts 303°
2026-04-26 04:11 30.24040 47.62529 33983 ft 414 kts 303°
2026-04-26 04:11 30.27908 47.57291 33988 ft 417 kts 303°
2026-04-26 04:12 30.31798 47.52026 33991 ft 417 kts 303°
2026-04-26 04:12 30.35671 47.46790 33981 ft 415 kts 303°
2026-04-26 04:13 30.39585 47.41484 33980 ft 417 kts 303°
2026-04-26 04:13 30.43483 47.36204 33973 ft 416 kts 303°
2026-04-26 04:14 30.47388 47.30898 33971 ft 418 kts 303°
2026-04-26 04:14 30.51302 47.25570 33962 ft 417 kts 303°
2026-04-26 04:15 30.55153 47.20331 33964 ft 416 kts 303°
2026-04-26 04:15 30.59050 47.14998 33963 ft 417 kts 303°
2026-04-26 04:16 30.62971 47.09631 33959 ft 417 kts 303°
2026-04-26 04:16 30.66837 47.04338 33963 ft 418 kts 303°
2026-04-26 04:17 30.70732 46.98994 33958 ft 419 kts 303°
2026-04-26 04:17 30.74619 46.93664 33957 ft 416 kts 303°
2026-04-26 04:18 30.78517 46.88303 33970 ft 417 kts 303°
2026-04-26 04:18 30.82382 46.82980 33964 ft 415 kts 303°
2026-04-26 04:19 30.86238 46.77658 33954 ft 416 kts 303°
2026-04-26 04:19 30.90099 46.72340 33965 ft 418 kts 303°
2026-04-26 04:20 30.94008 46.66942 33957 ft 417 kts 303°
2026-04-26 04:20 30.97897 46.61565 33951 ft 417 kts 303°
2026-04-26 04:21 31.01771 46.56186 33949 ft 418 kts 303°
2026-04-26 04:21 31.05671 46.50771 33954 ft 419 kts 303°
2026-04-26 04:22 31.09585 46.45343 33951 ft 420 kts 303°
2026-04-26 04:22 31.13475 46.39933 33960 ft 419 kts 303°
2026-04-26 04:23 31.17361 46.34507 33978 ft 419 kts 302°
2026-04-26 04:23 31.21236 46.29102 33981 ft 417 kts 302°
2026-04-26 04:24 31.25139 46.23656 33973 ft 421 kts 302°
2026-04-26 04:24 31.29027 46.18218 33972 ft 417 kts 302°
2026-04-26 04:25 31.32909 46.12770 33973 ft 419 kts 302°
2026-04-26 04:25 31.36810 46.07290 33974 ft 422 kts 302°
2026-04-26 04:26 31.40705 46.01825 33967 ft 420 kts 302°
2026-04-26 04:26 31.44608 45.96335 33952 ft 422 kts 302°
2026-04-26 04:27 31.48501 45.90837 33959 ft 420 kts 302°
2026-04-26 04:27 31.52395 45.85341 33964 ft 422 kts 302°
2026-04-26 04:28 31.56275 45.79855 33959 ft 423 kts 302°
2026-04-26 04:28 31.60194 45.74307 33955 ft 422 kts 303°
2026-04-26 04:29 31.64081 45.68796 33956 ft 424 kts 302°
2026-04-26 04:29 31.67952 45.63311 33957 ft 424 kts 302°
2026-04-26 04:30 31.71864 45.57749 33950 ft 425 kts 302°
2026-04-26 04:30 31.75740 45.52227 33963 ft 424 kts 302°
2026-04-26 04:31 31.79653 45.46637 33954 ft 426 kts 303°
2026-04-26 04:31 31.83554 45.41080 33970 ft 426 kts 303°
2026-04-26 04:32 31.87456 45.35499 33964 ft 427 kts 303°
2026-04-26 04:32 31.91341 45.29937 33959 ft 424 kts 302°
2026-04-26 04:33 31.95249 45.24334 33971 ft 426 kts 302°
2026-04-26 04:33 31.99196 45.18653 33967 ft 429 kts 302°
2026-04-26 04:34 32.03114 45.13015 33960 ft 426 kts 302°
2026-04-26 04:34 32.07019 45.07390 33964 ft 426 kts 302°
2026-04-26 04:35 32.10947 45.01728 33948 ft 429 kts 302°
2026-04-26 04:35 32.14904 44.96018 33959 ft 429 kts 302°
2026-04-26 04:36 32.18802 44.90382 33963 ft 428 kts 303°
2026-04-26 04:36 32.22702 44.84730 33953 ft 428 kts 302°
2026-04-26 04:37 32.26590 44.79085 33966 ft 428 kts 302°
2026-04-26 04:37 32.30524 44.73359 33954 ft 427 kts 302°
2026-04-26 04:38 32.34446 44.67646 33960 ft 432 kts 302°
2026-04-26 04:38 32.38399 44.61889 33957 ft 430 kts 302°
2026-04-26 04:39 32.42301 44.56211 33964 ft 430 kts 302°
2026-04-26 04:39 32.46228 44.50462 33955 ft 430 kts 303°
2026-04-26 04:40 32.50107 44.44776 33952 ft 431 kts 302°
2026-04-26 04:40 32.53997 44.39061 33955 ft 432 kts 303°
2026-04-26 04:41 32.57918 44.33299 33957 ft 432 kts 302°
2026-04-26 04:41 32.61838 44.27529 33942 ft 430 kts 302°
2026-04-26 04:42 32.65734 44.21793 33951 ft 431 kts 302°
2026-04-26 04:42 32.69627 44.16054 33945 ft 432 kts 302°
2026-04-26 04:43 32.73550 44.10246 33942 ft 433 kts 302°
2026-04-26 04:43 32.77464 44.04452 33947 ft 430 kts 302°
2026-04-26 04:44 32.81351 43.98691 33943 ft 431 kts 302°
2026-04-26 04:44 32.85234 43.92917 33952 ft 432 kts 303°
2026-04-26 04:45 32.89145 43.87097 33948 ft 433 kts 302°
2026-04-26 04:45 32.93046 43.81294 33958 ft 432 kts 303°
2026-04-26 04:46 32.96936 43.75488 33975 ft 435 kts 303°
2026-04-26 04:46 33.00888 43.69577 33966 ft 434 kts 303°
2026-04-26 04:47 33.04744 43.63809 33967 ft 435 kts 303°
2026-04-26 04:47 33.08630 43.57983 33972 ft 436 kts 303°
2026-04-26 04:48 33.14444 43.49251 33970 ft 435 kts 303°
2026-04-26 04:48 33.18351 43.43371 33962 ft 436 kts 303°
2026-04-26 04:49 33.22266 43.37469 33975 ft 435 kts 303°
2026-04-26 04:49 33.26152 43.31595 33980 ft 435 kts 302°
2026-04-26 04:50 33.29955 43.25688 33974 ft 433 kts 298°
2026-04-26 04:50 33.31448 43.22446 33967 ft 426 kts 287°
2026-04-26 04:50 33.32288 43.18902 33967 ft 419 kts 276°
2026-04-26 04:51 33.32817 43.11738 33959 ft 417 kts 270°
2026-04-26 04:51 33.33135 43.04583 33960 ft 415 kts 270°
2026-04-26 04:52 33.33461 42.97402 33968 ft 416 kts 270°
2026-04-26 04:52 33.33798 42.90276 33966 ft 416 kts 270°
2026-04-26 04:53 33.34143 42.83115 33967 ft 416 kts 270°
2026-04-26 04:53 33.34490 42.75946 33955 ft 416 kts 270°
2026-04-26 04:54 33.34832 42.68794 33965 ft 419 kts 270°
2026-04-26 04:54 33.35173 42.61631 33978 ft 416 kts 270°
2026-04-26 04:55 33.35504 42.54461 33970 ft 415 kts 270°
2026-04-26 04:55 33.35831 42.47277 33981 ft 417 kts 270°
2026-04-26 04:56 33.36157 42.40083 33975 ft 416 kts 271°
2026-04-26 04:56 33.36479 42.32943 33975 ft 418 kts 270°
2026-04-26 04:57 33.36798 42.25745 33968 ft 416 kts 270°
2026-04-26 04:57 33.37116 42.18533 33977 ft 417 kts 270°
2026-04-26 04:58 33.37427 42.11361 33974 ft 418 kts 270°
2026-04-26 04:58 33.37735 42.04135 33978 ft 418 kts 270°
2026-04-26 04:59 33.38034 41.97003 33982 ft 416 kts 270°
2026-04-26 04:59 33.38333 41.89817 33974 ft 417 kts 270°
2026-04-26 05:00 33.38625 41.82639 33984 ft 418 kts 270°
2026-04-26 05:00 33.38918 41.75419 33989 ft 417 kts 270°
2026-04-26 05:01 33.39200 41.68216 33978 ft 417 kts 270°
2026-04-26 05:01 33.39481 41.61045 33994 ft 417 kts 270°
2026-04-26 05:02 33.39758 41.53833 33986 ft 419 kts 270°
2026-04-26 05:02 33.40031 41.46624 33988 ft 416 kts 270°
2026-04-26 05:03 33.40294 41.39454 33997 ft 418 kts 270°
2026-04-26 05:03 33.40560 41.32266 33995 ft 417 kts 270°
2026-04-26 05:04 33.40826 41.25035 33993 ft 416 kts 269°
2026-04-26 05:04 33.41082 41.17849 33992 ft 417 kts 270°
2026-04-26 05:05 33.41333 41.10663 33993 ft 417 kts 270°
2026-04-26 05:05 33.41580 41.03458 33998 ft 417 kts 270°
2026-04-26 05:06 33.41822 40.96312 34001 ft 418 kts 269°
2026-04-26 05:06 33.42064 40.89129 34005 ft 418 kts 270°
2026-04-26 05:07 33.42298 40.81924 33996 ft 418 kts 269°
2026-04-26 05:07 33.42526 40.74737 34000 ft 417 kts 270°
2026-04-26 05:08 33.42752 40.67577 33999 ft 418 kts 269°
2026-04-26 05:08 33.42978 40.60367 34005 ft 417 kts 270°
2026-04-26 05:09 33.43198 40.53172 34004 ft 418 kts 269°
2026-04-26 05:09 33.43412 40.45990 34008 ft 415 kts 269°
2026-04-26 05:10 33.43620 40.38774 34007 ft 418 kts 270°
2026-04-26 05:10 33.43827 40.31583 34001 ft 416 kts 269°
2026-04-26 05:11 33.44029 40.24348 33999 ft 417 kts 269°
2026-04-26 05:11 33.44229 40.17118 34000 ft 415 kts 269°
2026-04-26 05:12 33.44421 40.09985 34005 ft 415 kts 269°
2026-04-26 05:12 33.44611 40.02792 34013 ft 416 kts 269°
2026-04-26 05:13 33.44797 39.95587 34018 ft 417 kts 269°
2026-04-26 05:13 33.44978 39.88409 34016 ft 416 kts 269°
2026-04-26 05:14 33.45155 39.81198 34026 ft 417 kts 269°
2026-04-26 05:14 33.45328 39.73990 34032 ft 415 kts 269°
2026-04-26 05:15 33.45498 39.66804 34022 ft 414 kts 269°
2026-04-26 05:15 33.45662 39.59654 34022 ft 414 kts 269°
2026-04-26 05:16 33.45820 39.52511 34024 ft 415 kts 269°
2026-04-26 05:16 33.45974 39.45404 34020 ft 413 kts 269°
2026-04-26 05:17 33.46124 39.38250 34024 ft 415 kts 269°
2026-04-26 05:17 33.46269 39.31102 34012 ft 413 kts 268°
2026-04-26 05:18 33.46414 39.23965 34021 ft 413 kts 268°
2026-04-26 05:18 33.46553 39.16786 34029 ft 413 kts 268°
2026-04-26 05:19 33.46690 39.09607 34019 ft 412 kts 268°
2026-04-26 05:19 33.46823 39.02521 34023 ft 412 kts 269°
2026-04-26 05:20 33.47024 38.95475 34020 ft 411 kts 270°
2026-04-26 05:20 33.47327 38.88287 34021 ft 413 kts 270°
2026-04-26 05:21 33.47623 38.81181 34005 ft 413 kts 270°
2026-04-26 05:21 33.47908 38.74044 34008 ft 411 kts 270°
2026-04-26 05:22 33.48364 38.66966 34007 ft 414 kts 277°
2026-04-26 05:22 33.49239 38.63525 34005 ft 423 kts 290°
2026-04-26 05:22 33.50682 38.60318 34002 ft 428 kts 296°
2026-04-26 05:23 33.54030 38.54122 34005 ft 428 kts 298°
2026-04-26 05:23 33.57497 38.47893 34001 ft 428 kts 298°
2026-04-26 05:24 33.60881 38.41693 34006 ft 428 kts 298°
2026-04-26 05:24 33.64212 38.35502 34009 ft 427 kts 297°
2026-04-26 05:25 33.67542 38.29258 34012 ft 426 kts 297°
2026-04-26 05:25 33.70837 38.23055 34021 ft 427 kts 297°
2026-04-26 05:26 33.74126 38.16842 34022 ft 428 kts 297°
2026-04-26 05:26 33.77446 38.10565 34015 ft 428 kts 297°
2026-04-26 05:27 33.80702 38.04393 34023 ft 427 kts 297°
2026-04-26 05:27 33.83988 37.98150 34020 ft 427 kts 297°
2026-04-26 05:28 33.87266 37.91915 34024 ft 427 kts 296°
2026-04-26 05:28 33.90541 37.85680 34035 ft 426 kts 296°
2026-04-26 05:29 33.93818 37.79419 34029 ft 426 kts 296°
2026-04-26 05:29 33.97090 37.73159 34034 ft 426 kts 296°
2026-04-26 05:30 34.00356 37.66905 34033 ft 426 kts 296°
2026-04-26 05:30 34.03635 37.60613 34033 ft 425 kts 296°
2026-04-26 05:31 34.06904 37.54331 34034 ft 425 kts 296°
2026-04-26 05:31 34.10170 37.48036 34036 ft 427 kts 296°
2026-04-26 05:32 34.13444 37.41716 34032 ft 428 kts 296°
2026-04-26 05:32 34.16679 37.35470 34029 ft 427 kts 296°
2026-04-26 05:33 34.19918 37.29204 34027 ft 426 kts 295°
2026-04-26 05:33 34.23331 37.23072 34020 ft 429 kts 300°
2026-04-26 05:34 34.27156 37.17165 34012 ft 433 kts 302°
2026-04-26 05:34 34.31033 37.11305 34010 ft 432 kts 302°
2026-04-26 05:35 34.34897 37.05391 34012 ft 433 kts 301°
2026-04-26 05:35 34.38692 36.99519 34012 ft 431 kts 301°
2026-04-26 05:36 34.42493 36.93610 34011 ft 433 kts 301°
2026-04-26 05:36 34.46318 36.87646 34011 ft 433 kts 301°
2026-04-26 05:37 34.50086 36.81757 34002 ft 434 kts 301°
2026-04-26 05:37 34.53886 36.75807 34000 ft 434 kts 301°
2026-04-26 05:38 34.57705 36.69819 33994 ft 434 kts 301°
2026-04-26 05:38 34.61467 36.63908 33986 ft 434 kts 301°
2026-04-26 05:39 34.65283 36.57898 33985 ft 436 kts 301°
2026-04-26 05:39 34.69059 36.51942 33989 ft 436 kts 301°
2026-04-26 05:40 34.72845 36.45964 33988 ft 435 kts 302°
2026-04-26 05:40 34.76621 36.39993 33984 ft 436 kts 301°
2026-04-26 05:41 34.80427 36.33963 33970 ft 436 kts 301°
2026-04-26 05:41 34.84250 36.27896 33977 ft 437 kts 301°
2026-04-26 05:42 34.88026 36.21888 33976 ft 438 kts 301°
2026-04-26 05:42 34.91833 36.15825 33978 ft 439 kts 301°
2026-04-26 05:43 34.95654 36.09732 33976 ft 439 kts 301°
2026-04-26 05:43 34.99453 36.03659 33961 ft 440 kts 301°
2026-04-26 05:44 35.03315 35.97480 33946 ft 439 kts 302°
2026-04-26 05:44 35.07193 35.91263 33932 ft 439 kts 301°
2026-04-26 05:45 35.11063 35.85040 33913 ft 439 kts 301°
2026-04-26 05:45 35.14928 35.78820 33897 ft 439 kts 302°
2026-04-26 05:46 35.18798 35.72497 33889 ft 440 kts 299°
2026-04-26 05:46 35.22079 35.65833 33890 ft 435 kts 293°
2026-04-26 05:47 35.25037 35.58917 33894 ft 435 kts 292°
2026-04-26 05:47 35.27939 35.52045 33892 ft 435 kts 292°
2026-04-26 05:48 35.30884 35.45148 33889 ft 435 kts 293°
2026-04-26 05:48 35.33861 35.38216 33885 ft 437 kts 293°
2026-04-26 05:49 35.38311 35.27870 33884 ft 436 kts 292°
2026-04-26 05:50 35.41270 35.20977 33883 ft 437 kts 292°
2026-04-26 05:50 35.44239 35.14042 33883 ft 437 kts 292°
2026-04-26 05:51 35.47120 35.07307 33886 ft 437 kts 292°
2026-04-26 05:51 35.50031 35.00489 33890 ft 438 kts 292°
2026-04-26 05:52 35.52931 34.93682 33883 ft 442 kts 293°
2026-04-26 05:52 35.55889 34.86715 33879 ft 452 kts 293°
2026-04-26 05:53 35.58841 34.79759 33886 ft 451 kts 293°
2026-04-26 05:53 35.61811 34.72749 33897 ft 451 kts 293°
2026-04-26 05:54 35.64773 34.65743 33899 ft 453 kts 293°
2026-04-26 05:54 35.67777 34.58623 33906 ft 452 kts 293°
2026-04-26 05:55 35.70750 34.51568 33902 ft 436 kts 293°
2026-04-26 05:55 35.73642 34.44691 33906 ft 430 kts 293°
2026-04-26 05:56 35.76506 34.37843 33907 ft 429 kts 293°
2026-04-26 05:56 35.79356 34.31017 33910 ft 430 kts 292°
2026-04-26 05:57 35.82227 34.24130 33908 ft 430 kts 293°
2026-04-26 05:57 35.85103 34.17219 33905 ft 431 kts 293°
2026-04-26 05:58 35.87974 34.10307 33907 ft 431 kts 293°
2026-04-26 05:58 35.90866 34.03331 33907 ft 431 kts 293°
2026-04-26 05:59 35.93548 33.96292 33906 ft 430 kts 289°
2026-04-26 05:59 35.95857 33.89092 33908 ft 429 kts 288°
2026-04-26 06:00 35.98133 33.81859 33908 ft 428 kts 288°
2026-04-26 06:00 36.00448 33.74633 33906 ft 431 kts 288°
2026-04-26 06:01 36.02804 33.67359 33894 ft 431 kts 288°
2026-04-26 06:01 36.05173 33.60068 33906 ft 432 kts 289°
2026-04-26 06:02 36.07505 33.52875 33910 ft 432 kts 289°
2026-04-26 06:02 36.09833 33.45682 33936 ft 433 kts 289°
2026-04-26 06:03 36.12103 33.38661 33958 ft 433 kts 289°
2026-04-26 06:03 36.14369 33.31629 33962 ft 432 kts 288°
2026-04-26 06:04 36.16594 33.24712 33959 ft 432 kts 288°
2026-04-26 06:04 36.18806 33.17816 33960 ft 432 kts 288°
2026-04-26 06:05 36.21013 33.10921 33985 ft 432 kts 288°
2026-04-26 06:05 36.23229 33.03984 33963 ft 432 kts 288°
2026-04-26 06:06 36.25437 32.97050 33979 ft 433 kts 288°
2026-04-26 06:06 36.27637 32.90123 34014 ft 433 kts 288°
2026-04-26 06:07 36.29836 32.83182 34033 ft 434 kts 289°
2026-04-26 06:07 36.32025 32.76262 34034 ft 434 kts 289°
2026-04-26 06:08 36.34222 32.69295 34037 ft 436 kts 289°
2026-04-26 06:08 36.36420 32.62314 34036 ft 435 kts 289°
2026-04-26 06:09 36.38625 32.55290 34032 ft 435 kts 289°
2026-04-26 06:09 36.40823 32.48275 34029 ft 436 kts 289°
2026-04-26 06:10 36.43050 32.41141 34034 ft 437 kts 289°
2026-04-26 06:10 36.45296 32.33933 33994 ft 437 kts 289°
2026-04-26 06:11 36.47550 32.26683 33996 ft 438 kts 289°
2026-04-26 06:11 36.49842 32.19293 33978 ft 439 kts 289°
2026-04-26 06:12 36.52121 32.11923 33991 ft 439 kts 289°
2026-04-26 06:12 36.54380 32.04592 33992 ft 438 kts 289°
2026-04-26 06:13 36.56654 31.97201 33983 ft 439 kts 289°
2026-04-26 06:13 36.58925 31.89807 34004 ft 440 kts 289°
2026-04-26 06:14 36.61190 31.82411 33987 ft 441 kts 289°
2026-04-26 06:14 36.63474 31.74925 33968 ft 442 kts 289°
2026-04-26 06:15 36.65759 31.67420 33973 ft 442 kts 289°
2026-04-26 06:15 36.68033 31.59936 33948 ft 442 kts 289°
2026-04-26 06:16 36.70314 31.52407 33956 ft 444 kts 289°
2026-04-26 06:16 36.72604 31.44831 33951 ft 446 kts 289°
2026-04-26 06:17 36.74886 31.37262 33943 ft 445 kts 290°
2026-04-26 06:17 36.77077 31.29966 33939 ft 446 kts 289°
2026-04-26 06:18 36.79305 31.22422 33939 ft 445 kts 285°
2026-04-26 06:18 36.80324 31.14520 33926 ft 444 kts 277°
2026-04-26 06:19 36.81342 31.06820 33925 ft 446 kts 279°
2026-04-26 06:19 36.82430 30.99076 33915 ft 446 kts 279°
2026-04-26 06:20 36.83486 30.91386 33919 ft 446 kts 279°
2026-04-26 06:20 36.84502 30.83773 33912 ft 447 kts 279°
2026-04-26 06:21 36.85507 30.76115 33913 ft 446 kts 278°
2026-04-26 06:21 36.86500 30.68455 33936 ft 448 kts 278°
2026-04-26 06:22 36.87485 30.60794 33952 ft 446 kts 279°
2026-04-26 06:22 36.87964 30.57063 33940 ft 430 kts 279°
2026-04-26 06:22 36.88425 30.53460 33926 ft 416 kts 278°
2026-04-26 06:22 36.88875 30.49938 33827 ft 404 kts 279°
2026-04-26 06:23 36.89310 30.46511 33669 ft 394 kts 279°
2026-04-26 06:23 36.89728 30.43220 33524 ft 384 kts 279°
2026-04-26 06:23 36.90141 30.39950 33116 ft 382 kts 279°
2026-04-26 06:23 36.90552 30.36686 32652 ft 382 kts 278°
2026-04-26 06:24 36.90971 30.33362 32176 ft 382 kts 278°
2026-04-26 06:24 36.91379 30.30106 31710 ft 382 kts 278°
2026-04-26 06:24 36.91783 30.26875 31247 ft 381 kts 278°
2026-04-26 06:24 36.92196 30.23571 30773 ft 380 kts 278°
2026-04-26 06:25 36.92603 30.20311 30290 ft 380 kts 278°
2026-04-26 06:25 36.93008 30.17065 29777 ft 380 kts 278°
2026-04-26 06:25 36.93422 30.13730 29251 ft 380 kts 278°
2026-04-26 06:25 36.93844 30.10326 28719 ft 379 kts 278°
2026-04-26 06:26 36.94253 30.07024 28200 ft 379 kts 278°
2026-04-26 06:26 36.94659 30.03728 27678 ft 378 kts 278°
2026-04-26 06:26 36.95067 30.00415 27155 ft 378 kts 278°
2026-04-26 06:26 36.95477 29.97070 26628 ft 377 kts 278°
2026-04-26 06:27 36.95885 29.93741 26102 ft 376 kts 278°
2026-04-26 06:27 36.96286 29.90464 25582 ft 375 kts 278°
2026-04-26 06:27 36.96684 29.87202 25060 ft 375 kts 278°
2026-04-26 06:27 36.97084 29.83914 24517 ft 374 kts 278°
2026-04-26 06:28 36.97487 29.80592 23968 ft 373 kts 278°
2026-04-26 06:28 36.97855 29.77235 23402 ft 371 kts 272°
2026-04-26 06:28 36.97596 29.73926 22830 ft 367 kts 251°
2026-04-26 06:28 36.96553 29.70894 22266 ft 362 kts 239°
2026-04-26 06:29 36.95233 29.68061 21703 ft 360 kts 236°
2026-04-26 06:29 36.93854 29.65303 21146 ft 359 kts 236°
2026-04-26 06:29 36.92448 29.62559 20591 ft 357 kts 233°
2026-04-26 06:29 36.90866 29.60025 20044 ft 354 kts 226°
2026-04-26 06:30 36.89105 29.57673 19500 ft 351 kts 224°
2026-04-26 06:30 36.87319 29.55402 18959 ft 350 kts 223°
2026-04-26 06:30 36.85537 29.53126 18419 ft 348 kts 224°
2026-04-26 06:30 36.83805 29.50864 17892 ft 347 kts 225°
2026-04-26 06:31 36.82094 29.48567 17366 ft 346 kts 225°
2026-04-26 06:31 36.80427 29.46289 16854 ft 344 kts 226°
2026-04-26 06:31 36.78735 29.43957 16320 ft 342 kts 226°
2026-04-26 06:31 36.77086 29.41676 15809 ft 340 kts 226°
2026-04-26 06:32 36.75551 29.39260 15286 ft 340 kts 233°
2026-04-26 06:32 36.74216 29.36673 14766 ft 339 kts 237°
2026-04-26 06:32 36.72983 29.34067 14249 ft 337 kts 237°
2026-04-26 06:32 36.71759 29.31470 13729 ft 334 kts 236°
2026-04-26 06:33 36.70493 29.28844 13201 ft 332 kts 236°
2026-04-26 06:33 36.69270 29.26295 12682 ft 331 kts 239°
2026-04-26 06:33 36.68323 29.23528 12154 ft 332 kts 249°
2026-04-26 06:33 36.67634 29.20663 11606 ft 326 kts 252°
2026-04-26 06:34 36.67027 29.17870 11072 ft 318 kts 252°
2026-04-26 06:34 36.66413 29.15123 10644 ft 308 kts 251°
2026-04-26 06:34 36.65793 29.12494 10204 ft 300 kts 251°
2026-04-26 06:34 36.65157 29.09902 9751 ft 295 kts 250°
2026-04-26 06:35 36.64532 29.07418 9314 ft 290 kts 250°
2026-04-26 06:35 36.63906 29.04943 8863 ft 287 kts 250°
2026-04-26 06:35 36.63278 29.02472 8386 ft 283 kts 251°
2026-04-26 06:35 36.62677 29.00102 7946 ft 280 kts 251°
2026-04-26 06:36 36.62097 28.97814 7516 ft 278 kts 251°
2026-04-26 06:36 36.61494 28.95435 7046 ft 275 kts 251°
2026-04-26 06:36 36.60889 28.93058 6603 ft 274 kts 251°
2026-04-26 06:36 36.60294 28.90716 6145 ft 272 kts 252°
2026-04-26 06:37 36.59703 28.88392 5655 ft 270 kts 252°
2026-04-26 06:37 36.59108 28.86059 5208 ft 269 kts 252°
2026-04-26 06:37 36.58480 28.83801 4758 ft 267 kts 242°
2026-04-26 06:37 36.57274 28.81964 4288 ft 260 kts 213°
2026-04-26 06:38 36.55679 28.80811 3846 ft 253 kts 211°
2026-04-26 06:38 36.54508 28.79217 3406 ft 251 kts 248°
2026-04-26 06:38 36.54363 28.77141 3144 ft 234 kts 289°
2026-04-26 06:38 36.55261 28.75563 2839 ft 217 kts 332°
2026-04-26 06:39 36.56682 28.74934 2533 ft 205 kts 352°
2026-04-26 06:39 36.58147 28.74709 2220 ft 198 kts
2026-04-26 06:39 36.59551 28.74747 1966 ft 190 kts
2026-04-26 06:39 36.60896 28.74954 1758 ft 181 kts 11°
2026-04-26 06:40 36.62112 28.75416 1539 ft 167 kts 26°
2026-04-26 06:40 36.63073 28.76054 1458 ft 151 kts 33°
2026-04-26 06:40 36.64039 28.76609 1333 ft 147 kts 24°
2026-04-26 06:40 36.65069 28.77078 1069 ft 150 kts 19°
2026-04-26 06:41 36.66097 28.77435 862 ft 148 kts 16°
2026-04-26 06:41 36.67113 28.77803 660 ft 146 kts 20°
2026-04-26 06:41 36.68166 28.78167 412 ft 147 kts 17°
2026-04-26 06:41 36.69172 28.78516 210 ft 146 kts 17°
2026-04-26 06:42 36.70145 28.78854 39 ft 145 kts 16°
2026-04-26 06:42 36.71001 28.79147 29 ft 95 kts 13°
2026-04-26 06:42 36.71450 28.79300 29 ft 45 kts 15°
2026-04-26 06:42 36.71775 28.79411 29 ft 41 kts 15°
2026-04-26 06:43 36.71991 28.79430 29 ft 22 kts 352°
2026-04-26 06:43 36.72110 28.79391 29 ft 17 kts 342°
2026-04-26 06:43 36.72220 28.79358 29 ft 6 kts 347°
2026-04-26 06:43 36.72276 28.79319 29 ft 8 kts 292°
2026-04-26 06:44 36.72293 28.79254 29 ft 10 kts 287°
2026-04-26 06:44 36.72302 28.79195 29 ft 7 kts 267°
2026-04-26 06:44 36.72241 28.79139 29 ft 15 kts 194°
2026-04-26 06:44 36.72132 28.79100 29 ft 10 kts 194°
2026-04-26 06:45 36.72092 28.79088 29 ft 7 kts 200°
2026-04-26 06:45 36.72073 28.79052 29 ft 1 kts 284°
2026-04-26 06:45 36.72080 28.79021 29 ft 4 kts 285°
2026-04-26 06:45 36.72082 28.79009 29 ft 0 kts 285°